Location: Oshawa
(43.9000°N, 78.8670°W)
Time: 02:07:10
(UTC-04:00)

Iridium 54 - Visible Passes

Search period start: 29 August 2015 00:00
Search period end: 08 September 2015 00:00
Orbit: 776 x 779 km, 86.4° (Epoch: 28 August)

Date Brightness Start Highest point End Pass type
(mag) Time Alt. Az. Time Alt. Az. Time Alt. Az.
29 Aug 5.5 20:18:29 10° S 20:23:38 67° E 20:28:50 10° N visible
29 Aug 8.4 22:01:50 10° WSW 22:05:01 16° WNW 22:08:00 10° NW visible
30 Aug 7.7 21:26:40 10° SW 21:31:05 27° WNW 21:35:28 10° NNW visible
31 Aug 6.7 20:52:19 10° SSW 20:57:20 48° W 21:02:23 10° N visible
01 Sep 5.6 20:18:31 10° S 20:23:44 86° W 20:28:59 10° N visible
01 Sep 8.8 22:04:02 10° W 22:05:27 11° WNW 22:06:32 10° NW visible
02 Sep 8.3 21:27:37 10° WSW 21:31:25 19° WNW 21:35:04 10° NNW visible
03 Sep 7.4 20:52:50 10° SW 20:57:33 34° WNW 21:02:15 10° NNW visible
04 Sep 6.2 20:18:43 10° SSW 20:23:52 60° W 20:29:02 10° N visible
05 Sep 8.7 21:29:03 10° WSW 21:31:48 14° WNW 21:34:18 10° NW visible
06 Sep 8.1 20:53:35 10° SW 20:57:50 24° WNW 21:01:59 10° NNW visible
07 Sep 9.2 05:42:17 10° NE 05:44:14 12° ENE 05:46:29 10° E visible
07 Sep 7.0 20:19:07 10° SSW 20:24:03 42° W 20:28:59 10° N visible
